Year,Month,Day,Hour,Minute,Value (Times are PST for temperature in C)
2012,07,05,00,00,13.30
2012,07,05,00,01,13.30
2012,07,05,00,02,13.20
2012,07,05,00,03,13.20
2012,07,05,00,04,13.20
2012,07,05,00,05,13.20
2012,07,05,00,06,13.20
2012,07,05,00,07,13.20
2012,07,05,00,08,13.20
2012,07,05,00,09,13.20
2012,07,05,00,10,13.10
2012,07,05,00,11,13.10
2012,07,05,00,12,13.10
2012,07,05,00,13,13.10
2012,07,05,00,14,13.10
2012,07,05,00,15,13.10
2012,07,05,00,16,13.10
2012,07,05,00,17,13.10
2012,07,05,00,18,13.10
2012,07,05,00,19,13.10
2012,07,05,00,20,13.10
2012,07,05,00,21,13.10
2012,07,05,00,22,13.10
2012,07,05,00,23,13.10
2012,07,05,00,24,13.10
2012,07,05,00,25,13.10
2012,07,05,00,26,13.10
2012,07,05,00,27,13.10
2012,07,05,00,28,13.10
2012,07,05,00,29,13.10
2012,07,05,00,30,13.10
2012,07,05,00,31,13.00
2012,07,05,00,32,13.00
2012,07,05,00,33,13.00
2012,07,05,00,34,13.00
2012,07,05,00,35,13.00
2012,07,05,00,36,13.00
2012,07,05,00,37,13.00
2012,07,05,00,38,13.00
2012,07,05,00,39,13.00
2012,07,05,00,40,13.00
2012,07,05,00,41,13.00
2012,07,05,00,42,13.00
2012,07,05,00,43,13.00
2012,07,05,00,44,12.90
2012,07,05,00,45,12.90
2012,07,05,00,46,12.80
2012,07,05,00,47,12.80
2012,07,05,00,48,12.80
2012,07,05,00,49,12.70
2012,07,05,00,50,12.60
2012,07,05,00,51,12.50
2012,07,05,00,52,12.50
2012,07,05,00,53,12.40
2012,07,05,00,54,12.30
2012,07,05,00,55,12.30
2012,07,05,00,56,12.30
2012,07,05,00,57,12.20
2012,07,05,00,58,12.20
2012,07,05,00,59,12.10
2012,07,05,01,00,12.10
2012,07,05,01,01,12.00
2012,07,05,01,02,12.00
2012,07,05,01,03,12.00
2012,07,05,01,04,11.90
2012,07,05,01,05,11.90
2012,07,05,01,06,11.90
2012,07,05,01,07,11.90
2012,07,05,01,08,11.90
2012,07,05,01,09,11.80
2012,07,05,01,10,11.80
2012,07,05,01,11,11.80
2012,07,05,01,12,11.80
2012,07,05,01,13,11.80
2012,07,05,01,14,11.80
2012,07,05,01,15,11.80
2012,07,05,01,16,11.80
2012,07,05,01,17,11.70
2012,07,05,01,18,11.70
2012,07,05,01,19,11.70
2012,07,05,01,20,11.70
2012,07,05,01,21,11.70
2012,07,05,01,22,11.60
2012,07,05,01,23,11.60
2012,07,05,01,24,11.60
2012,07,05,01,25,11.60
2012,07,05,01,26,11.60
2012,07,05,01,27,11.40
2012,07,05,01,28,11.40
2012,07,05,01,29,11.40
2012,07,05,01,30,11.40
2012,07,05,01,31,11.40
2012,07,05,01,32,11.40
2012,07,05,01,33,11.40
2012,07,05,01,34,11.30
2012,07,05,01,35,11.30
2012,07,05,01,36,11.30
2012,07,05,01,37,11.20
2012,07,05,01,38,11.20
2012,07,05,01,39,11.20
2012,07,05,01,40,11.10
2012,07,05,01,41,11.10
2012,07,05,01,42,11.10
2012,07,05,01,43,11.10
2012,07,05,01,44,11.10
2012,07,05,01,45,11.00
2012,07,05,01,46,10.90
2012,07,05,01,47,10.90
2012,07,05,01,48,10.90
2012,07,05,01,49,10.80
2012,07,05,01,50,10.80
2012,07,05,01,51,10.70
2012,07,05,01,52,10.70
2012,07,05,01,53,10.70
2012,07,05,01,54,10.60
2012,07,05,01,55,10.60
2012,07,05,01,56,10.60
2012,07,05,01,57,10.60
2012,07,05,01,58,10.60
2012,07,05,01,59,10.60
2012,07,05,02,00,10.60
2012,07,05,02,01,10.60
2012,07,05,02,02,10.60
2012,07,05,02,03,10.60
2012,07,05,02,04,10.60
2012,07,05,02,05,10.60
2012,07,05,02,06,10.60
2012,07,05,02,07,10.60
2012,07,05,02,08,10.60
2012,07,05,02,09,10.60
2012,07,05,02,10,10.60
2012,07,05,02,11,10.60
2012,07,05,02,12,10.60
2012,07,05,02,13,10.50
2012,07,05,02,14,10.40
2012,07,05,02,15,10.40
2012,07,05,02,16,10.40
2012,07,05,02,17,10.40
2012,07,05,02,18,10.40
2012,07,05,02,19,10.40
2012,07,05,02,20,10.40
2012,07,05,02,21,10.40
2012,07,05,02,22,10.40
2012,07,05,02,23,10.40
2012,07,05,02,24,10.40
2012,07,05,02,25,10.30
2012,07,05,02,26,10.30
2012,07,05,02,27,10.30
2012,07,05,02,28,10.30
2012,07,05,02,29,10.30
2012,07,05,02,30,10.20
2012,07,05,02,31,10.20
2012,07,05,02,32,10.20
2012,07,05,02,33,10.20
2012,07,05,02,34,10.20
2012,07,05,02,35,10.10
2012,07,05,02,36,10.10
2012,07,05,02,37,10.10
2012,07,05,02,38,10.10
2012,07,05,02,39,10.10
2012,07,05,02,40,10.10
2012,07,05,02,41,10.10
2012,07,05,02,42,10.10
2012,07,05,02,43,10.00
2012,07,05,02,44,9.90
2012,07,05,02,45,9.90
2012,07,05,02,46,9.90
2012,07,05,02,47,9.90
2012,07,05,02,48,9.80
2012,07,05,02,49,9.80
2012,07,05,02,50,9.80
2012,07,05,02,51,9.80
2012,07,05,02,52,9.80
2012,07,05,02,53,9.80
2012,07,05,02,54,9.80
2012,07,05,02,55,9.90
2012,07,05,02,56,9.90
2012,07,05,02,57,9.90
2012,07,05,02,58,9.90
2012,07,05,02,59,9.90
2012,07,05,03,00,9.90
2012,07,05,03,01,9.90
2012,07,05,03,02,9.90
2012,07,05,03,03,9.90
2012,07,05,03,04,9.90
2012,07,05,03,05,9.90
2012,07,05,03,06,9.90
2012,07,05,03,07,9.90
2012,07,05,03,08,9.90
2012,07,05,03,09,9.90
2012,07,05,03,10,10.00
2012,07,05,03,11,10.10
2012,07,05,03,12,10.10
2012,07,05,03,13,10.10
2012,07,05,03,14,10.10
2012,07,05,03,15,10.10
2012,07,05,03,16,10.10
2012,07,05,03,17,10.10
2012,07,05,03,18,10.00
2012,07,05,03,19,9.90
2012,07,05,03,20,9.90
2012,07,05,03,21,9.90
2012,07,05,03,22,9.90
2012,07,05,03,23,9.80
2012,07,05,03,24,9.80
2012,07,05,03,25,9.80
2012,07,05,03,26,9.70
2012,07,05,03,27,9.70
2012,07,05,03,28,9.70
2012,07,05,03,29,9.70
2012,07,05,03,30,9.70
2012,07,05,03,31,9.60
2012,07,05,03,32,9.60
2012,07,05,03,33,9.60
2012,07,05,03,34,9.60
2012,07,05,03,35,9.60
2012,07,05,03,36,9.50
2012,07,05,03,37,9.50
2012,07,05,03,38,9.50
2012,07,05,03,39,9.50
2012,07,05,03,40,9.50
2012,07,05,03,41,9.40
2012,07,05,03,42,9.40
2012,07,05,03,43,9.40
2012,07,05,03,44,9.40
2012,07,05,03,45,9.40
2012,07,05,03,46,9.30
2012,07,05,03,47,9.30
2012,07,05,03,48,9.30
2012,07,05,03,49,9.30
2012,07,05,03,50,9.20
2012,07,05,03,51,9.20
2012,07,05,03,52,9.20
2012,07,05,03,53,9.20
2012,07,05,03,54,9.20
2012,07,05,03,55,9.20
2012,07,05,03,56,9.20
2012,07,05,03,57,9.20
2012,07,05,03,58,9.20
2012,07,05,03,59,9.20
2012,07,05,04,00,9.20
2012,07,05,04,01,9.20
2012,07,05,04,02,9.20
2012,07,05,04,03,9.10
2012,07,05,04,04,9.10
2012,07,05,04,05,9.10
2012,07,05,04,06,9.10
2012,07,05,04,07,9.10
2012,07,05,04,08,9.10
2012,07,05,04,09,9.00
2012,07,05,04,10,9.00
2012,07,05,04,11,9.00
2012,07,05,04,12,9.00
2012,07,05,04,13,9.00
2012,07,05,04,14,9.00
2012,07,05,04,15,8.90
2012,07,05,04,16,8.90
2012,07,05,04,17,8.90
2012,07,05,04,18,8.90
2012,07,05,04,19,8.90
2012,07,05,04,20,8.90
2012,07,05,04,21,8.90
2012,07,05,04,22,8.90
2012,07,05,04,23,8.80
2012,07,05,04,24,8.80
2012,07,05,04,25,8.80
2012,07,05,04,26,8.80
2012,07,05,04,27,8.80
2012,07,05,04,28,8.80
2012,07,05,04,29,8.80
2012,07,05,04,30,8.70
2012,07,05,04,31,8.70
2012,07,05,04,32,8.70
2012,07,05,04,33,8.70
2012,07,05,04,34,8.70
2012,07,05,04,35,8.70
2012,07,05,04,36,8.70
2012,07,05,04,37,8.70
2012,07,05,04,38,8.70
2012,07,05,04,39,8.60
2012,07,05,04,40,8.60
2012,07,05,04,41,8.60
2012,07,05,04,42,8.60
2012,07,05,04,43,8.60
2012,07,05,04,44,8.60
2012,07,05,04,45,8.60
2012,07,05,04,46,8.60
2012,07,05,04,47,8.60
2012,07,05,04,48,8.60
2012,07,05,04,49,8.60
2012,07,05,04,50,8.60
2012,07,05,04,51,8.60
2012,07,05,04,52,8.60
2012,07,05,04,53,8.60
2012,07,05,04,54,8.60
2012,07,05,04,55,8.50
2012,07,05,04,56,8.50
2012,07,05,04,57,8.50
2012,07,05,04,58,8.50
2012,07,05,04,59,8.50
2012,07,05,05,00,8.50
2012,07,05,05,01,8.40
2012,07,05,05,02,8.40
2012,07,05,05,03,8.40
2012,07,05,05,04,8.40
2012,07,05,05,05,8.40
2012,07,05,05,06,8.40
2012,07,05,05,07,8.40
2012,07,05,05,08,8.40
2012,07,05,05,09,8.40
2012,07,05,05,10,8.40
2012,07,05,05,11,8.40
2012,07,05,05,12,8.40
2012,07,05,05,13,8.50
2012,07,05,05,14,8.50
2012,07,05,05,15,8.50
2012,07,05,05,16,8.50
2012,07,05,05,17,8.50
2012,07,05,05,18,8.50
2012,07,05,05,19,8.50
2012,07,05,05,20,8.50
2012,07,05,05,21,8.50
2012,07,05,05,22,8.40
2012,07,05,05,23,8.50
2012,07,05,05,24,8.50
2012,07,05,05,25,8.50
2012,07,05,05,26,8.50
2012,07,05,05,27,8.50
2012,07,05,05,28,8.50
2012,07,05,05,29,8.50
2012,07,05,05,30,8.40
2012,07,05,05,31,8.40
2012,07,05,05,32,8.40
2012,07,05,05,33,8.40
2012,07,05,05,34,8.30
2012,07,05,05,35,8.30
2012,07,05,05,36,8.30
2012,07,05,05,37,8.30
2012,07,05,05,38,8.30
2012,07,05,05,39,8.30
2012,07,05,05,40,8.30
2012,07,05,05,41,8.30
2012,07,05,05,42,8.30
2012,07,05,05,43,8.30
2012,07,05,05,44,8.30
2012,07,05,05,45,8.30
2012,07,05,05,46,8.30
2012,07,05,05,47,8.30
2012,07,05,05,48,8.30
2012,07,05,05,49,8.30
2012,07,05,05,50,8.30
2012,07,05,05,51,8.30
2012,07,05,05,52,8.40
2012,07,05,05,53,8.40
2012,07,05,05,54,8.40
2012,07,05,05,55,8.40
2012,07,05,05,56,8.40
2012,07,05,05,57,8.40
2012,07,05,05,58,8.40
2012,07,05,05,59,8.40
2012,07,05,06,00,8.40
2012,07,05,06,01,8.40
2012,07,05,06,02,8.40
2012,07,05,06,03,8.40
2012,07,05,06,04,8.40
2012,07,05,06,05,8.40
2012,07,05,06,06,8.40
2012,07,05,06,07,8.40
2012,07,05,06,08,8.50
2012,07,05,06,09,8.50
2012,07,05,06,10,8.50
2012,07,05,06,11,8.60
2012,07,05,06,12,8.60
2012,07,05,06,13,8.60
2012,07,05,06,14,8.70
2012,07,05,06,15,8.70
2012,07,05,06,16,8.70
2012,07,05,06,17,8.70
2012,07,05,06,18,8.70
2012,07,05,06,19,8.80
2012,07,05,06,20,8.80
2012,07,05,06,21,8.90
2012,07,05,06,22,8.90
2012,07,05,06,23,9.00
2012,07,05,06,24,9.00
2012,07,05,06,25,9.00
2012,07,05,06,26,9.10
2012,07,05,06,27,9.20
2012,07,05,06,28,9.20
2012,07,05,06,29,9.20
2012,07,05,06,30,9.30
2012,07,05,06,31,9.30
2012,07,05,06,32,9.40
2012,07,05,06,33,9.40
2012,07,05,06,34,9.50
2012,07,05,06,35,9.60
2012,07,05,06,36,9.60
2012,07,05,06,37,9.70
2012,07,05,06,38,9.70
2012,07,05,06,39,9.80
2012,07,05,06,40,9.80
2012,07,05,06,41,9.90
2012,07,05,06,42,9.90
2012,07,05,06,43,10.00
2012,07,05,06,44,10.10
2012,07,05,06,45,10.10
2012,07,05,06,46,10.10
2012,07,05,06,47,10.20
2012,07,05,06,48,10.30
2012,07,05,06,49,10.40
2012,07,05,06,50,10.40
2012,07,05,06,51,10.40
2012,07,05,06,52,10.60
2012,07,05,06,53,10.60
2012,07,05,06,54,10.60
2012,07,05,06,55,10.70
2012,07,05,06,56,10.80
2012,07,05,06,57,10.90
2012,07,05,06,58,10.90
2012,07,05,06,59,11.00
2012,07,05,07,00,11.10
2012,07,05,07,01,11.10
2012,07,05,07,02,11.20
2012,07,05,07,03,11.20
2012,07,05,07,04,11.30
2012,07,05,07,05,11.40
2012,07,05,07,06,11.40
2012,07,05,07,07,11.50
2012,07,05,07,08,11.60
2012,07,05,07,09,11.60
2012,07,05,07,10,11.70
2012,07,05,07,11,11.80
2012,07,05,07,12,11.80
2012,07,05,07,13,11.90
2012,07,05,07,14,11.90
2012,07,05,07,15,12.00
2012,07,05,07,16,12.00
2012,07,05,07,17,12.10
2012,07,05,07,18,12.20
2012,07,05,07,19,12.20
2012,07,05,07,20,12.30
2012,07,05,07,21,12.30
2012,07,05,07,22,12.40
2012,07,05,07,23,12.40
2012,07,05,07,24,12.50
2012,07,05,07,25,12.60
2012,07,05,07,26,12.70
2012,07,05,07,27,12.80
2012,07,05,07,28,13.00
2012,07,05,07,29,13.10
2012,07,05,07,30,13.20
2012,07,05,07,31,13.30
2012,07,05,07,32,13.40
2012,07,05,07,33,13.60
2012,07,05,07,34,13.70
2012,07,05,07,35,13.80
2012,07,05,07,36,14.00
2012,07,05,07,37,14.10
2012,07,05,07,38,14.20
2012,07,05,07,39,14.30
2012,07,05,07,40,14.40
2012,07,05,07,41,14.50
2012,07,05,07,42,14.60
2012,07,05,07,43,14.60
2012,07,05,07,44,14.60
2012,07,05,07,45,14.70
2012,07,05,07,46,14.80
2012,07,05,07,47,14.90
2012,07,05,07,48,14.90
2012,07,05,07,49,15.00
2012,07,05,07,50,15.00
2012,07,05,07,51,15.10
2012,07,05,07,52,15.10
2012,07,05,07,53,15.10
2012,07,05,07,54,15.10
2012,07,05,07,55,15.10
2012,07,05,07,56,15.10
2012,07,05,07,57,15.20
2012,07,05,07,58,15.10
2012,07,05,07,59,15.10
2012,07,05,08,00,15.10
2012,07,05,08,01,15.10
2012,07,05,08,02,15.10
2012,07,05,08,03,15.10
2012,07,05,08,04,15.00
2012,07,05,08,05,14.90
2012,07,05,08,06,14.80
2012,07,05,08,07,14.70
2012,07,05,08,08,14.60
2012,07,05,08,09,14.50
2012,07,05,08,10,14.50
2012,07,05,08,11,14.50
2012,07,05,08,12,14.60
2012,07,05,08,13,14.70
2012,07,05,08,14,14.70
2012,07,05,08,15,14.60
2012,07,05,08,16,14.70
2012,07,05,08,17,14.70
2012,07,05,08,18,14.60
2012,07,05,08,19,14.60
2012,07,05,08,20,14.60
2012,07,05,08,21,14.60
2012,07,05,08,22,14.70
2012,07,05,08,23,14.80
2012,07,05,08,24,14.90
2012,07,05,08,25,15.00
2012,07,05,08,26,15.10
2012,07,05,08,27,15.20
2012,07,05,08,28,15.30
2012,07,05,08,29,15.30
2012,07,05,08,30,15.40
2012,07,05,08,31,15.50
2012,07,05,08,32,15.50
2012,07,05,08,33,15.50
2012,07,05,08,34,15.60
2012,07,05,08,35,15.50
2012,07,05,08,36,15.50
2012,07,05,08,37,15.40
2012,07,05,08,38,15.40
2012,07,05,08,39,15.40
2012,07,05,08,40,15.40
2012,07,05,08,41,15.30
2012,07,05,08,42,15.30
2012,07,05,08,43,15.30
2012,07,05,08,44,15.30
2012,07,05,08,45,15.30
2012,07,05,08,46,15.30
2012,07,05,08,47,15.30
2012,07,05,08,48,15.40
2012,07,05,08,49,15.40
2012,07,05,08,50,15.40
2012,07,05,08,51,15.40
2012,07,05,08,52,15.40
2012,07,05,08,53,15.50
2012,07,05,08,54,15.50
2012,07,05,08,55,15.60
2012,07,05,08,56,15.60
2012,07,05,08,57,15.70
2012,07,05,08,58,15.90
2012,07,05,08,59,16.00
2012,07,05,09,00,16.10
2012,07,05,09,01,16.20
2012,07,05,09,02,16.30
2012,07,05,09,03,16.40
2012,07,05,09,04,16.40
2012,07,05,09,05,16.40
2012,07,05,09,06,16.40
2012,07,05,09,07,16.50
2012,07,05,09,08,16.60
2012,07,05,09,09,16.60
2012,07,05,09,10,16.60
2012,07,05,09,11,16.70
2012,07,05,09,12,16.70
2012,07,05,09,13,16.70
2012,07,05,09,14,16.80
2012,07,05,09,15,16.80
2012,07,05,09,16,16.70
2012,07,05,09,17,16.60
2012,07,05,09,18,16.50
2012,07,05,09,19,16.40
2012,07,05,09,20,16.40
2012,07,05,09,21,16.30
2012,07,05,09,22,16.30
2012,07,05,09,23,16.30
2012,07,05,09,24,16.30
2012,07,05,09,25,16.40
2012,07,05,09,26,16.40
2012,07,05,09,27,16.30
2012,07,05,09,28,16.20
2012,07,05,09,29,16.10
2012,07,05,09,30,16.00
2012,07,05,09,31,16.00
2012,07,05,09,32,16.10
2012,07,05,09,33,16.10
2012,07,05,09,34,16.30
2012,07,05,09,35,16.40
2012,07,05,09,36,16.50
2012,07,05,09,37,16.60
2012,07,05,09,38,16.70
2012,07,05,09,39,16.80
2012,07,05,09,40,16.80
2012,07,05,09,41,16.80
2012,07,05,09,42,16.80
2012,07,05,09,43,16.90
2012,07,05,09,44,16.90
2012,07,05,09,45,16.80
2012,07,05,09,46,16.80
2012,07,05,09,47,16.70
2012,07,05,09,48,16.70
2012,07,05,09,49,16.40
2012,07,05,09,50,16.20
2012,07,05,09,51,16.00
2012,07,05,09,52,16.00
2012,07,05,09,53,16.10
2012,07,05,09,54,16.10
2012,07,05,09,55,16.20
2012,07,05,09,56,16.20
2012,07,05,09,57,16.20
2012,07,05,09,58,16.20
2012,07,05,09,59,16.20
2012,07,05,10,00,16.10
2012,07,05,10,01,15.90
2012,07,05,10,02,16.00
2012,07,05,10,03,16.10
2012,07,05,10,04,16.10
2012,07,05,10,05,16.00
2012,07,05,10,06,15.90
2012,07,05,10,07,15.90
2012,07,05,10,08,16.00
2012,07,05,10,09,16.10
2012,07,05,10,10,16.10
2012,07,05,10,11,16.10
2012,07,05,10,12,16.10
2012,07,05,10,13,16.10
2012,07,05,10,14,16.10
2012,07,05,10,15,16.10
2012,07,05,10,16,16.10
2012,07,05,10,17,16.10
2012,07,05,10,18,16.10
2012,07,05,10,19,16.10
2012,07,05,10,20,16.20
2012,07,05,10,21,16.30
2012,07,05,10,22,16.30
2012,07,05,10,23,16.30
2012,07,05,10,24,16.40
2012,07,05,10,25,16.20
2012,07,05,10,26,16.00
2012,07,05,10,27,15.80
2012,07,05,10,28,15.60
2012,07,05,10,29,15.40
2012,07,05,10,30,15.10
2012,07,05,10,31,14.80
2012,07,05,10,32,14.70
2012,07,05,10,33,14.80
2012,07,05,10,34,14.80
2012,07,05,10,35,14.80
2012,07,05,10,36,14.80
2012,07,05,10,37,14.80
2012,07,05,10,38,14.80
2012,07,05,10,39,14.80
2012,07,05,10,40,14.90
2012,07,05,10,41,15.00
2012,07,05,10,42,15.10
2012,07,05,10,43,15.10
2012,07,05,10,44,15.10
2012,07,05,10,45,15.10
2012,07,05,10,46,15.20
2012,07,05,10,47,15.20
2012,07,05,10,48,15.30
2012,07,05,10,49,15.50
2012,07,05,10,50,15.60
2012,07,05,10,51,15.50
2012,07,05,10,52,15.50
2012,07,05,10,53,15.40
2012,07,05,10,54,15.30
2012,07,05,10,55,15.20
2012,07,05,10,56,15.20
2012,07,05,10,57,15.20
2012,07,05,10,58,15.20
2012,07,05,10,59,15.20
2012,07,05,11,00,15.10
2012,07,05,11,01,15.10
2012,07,05,11,02,15.10
2012,07,05,11,03,15.20
2012,07,05,11,04,15.20
2012,07,05,11,05,15.30
2012,07,05,11,06,15.40
2012,07,05,11,07,15.60
2012,07,05,11,08,15.80
2012,07,05,11,09,15.90
2012,07,05,11,10,16.10
2012,07,05,11,11,16.30
2012,07,05,11,12,16.40
2012,07,05,11,13,16.40
2012,07,05,11,14,16.60
2012,07,05,11,15,16.70
2012,07,05,11,16,16.80
2012,07,05,11,17,16.70
2012,07,05,11,18,16.60
2012,07,05,11,19,16.40
2012,07,05,11,20,16.50
2012,07,05,11,21,16.60
2012,07,05,11,22,16.70
2012,07,05,11,23,16.70
2012,07,05,11,24,16.70
2012,07,05,11,25,16.70
2012,07,05,11,26,16.70
2012,07,05,11,27,16.70
2012,07,05,11,28,16.70
2012,07,05,11,29,16.80
2012,07,05,11,30,16.90
2012,07,05,11,31,17.00
2012,07,05,11,32,17.00
2012,07,05,11,33,16.90
2012,07,05,11,34,16.90
2012,07,05,11,35,16.90
2012,07,05,11,36,17.00
2012,07,05,11,37,17.10
2012,07,05,11,38,16.90
2012,07,05,11,39,16.90
2012,07,05,11,40,16.90
2012,07,05,11,41,17.10
2012,07,05,11,42,17.30
2012,07,05,11,43,17.40
2012,07,05,11,44,17.60
2012,07,05,11,45,17.70
2012,07,05,11,46,17.60
2012,07,05,11,47,17.50
2012,07,05,11,48,17.50
2012,07,05,11,49,17.50
2012,07,05,11,50,17.50
2012,07,05,11,51,17.50
2012,07,05,11,52,17.40
2012,07,05,11,53,17.50
2012,07,05,11,54,17.40
2012,07,05,11,55,17.40
2012,07,05,11,56,17.30
2012,07,05,11,57,17.10
2012,07,05,11,58,17.10
2012,07,05,11,59,17.00
2012,07,05,12,00,16.90
2012,07,05,12,01,16.90
2012,07,05,12,02,17.00
2012,07,05,12,03,17.10
2012,07,05,12,04,17.10
2012,07,05,12,05,17.20
2012,07,05,12,06,17.30
2012,07,05,12,07,17.30
2012,07,05,12,08,17.40
2012,07,05,12,09,17.30
2012,07,05,12,10,17.30
2012,07,05,12,11,17.40
2012,07,05,12,12,17.40
2012,07,05,12,13,17.40
2012,07,05,12,14,17.50
2012,07,05,12,15,17.70
2012,07,05,12,16,17.80
2012,07,05,12,17,17.80
2012,07,05,12,18,17.90
2012,07,05,12,19,17.90
2012,07,05,12,20,17.90
2012,07,05,12,21,17.90
2012,07,05,12,22,17.80
2012,07,05,12,23,17.80
2012,07,05,12,24,17.70
2012,07,05,12,25,17.50
2012,07,05,12,26,17.30
2012,07,05,12,27,17.10
2012,07,05,12,28,17.10
2012,07,05,12,29,17.10
2012,07,05,12,30,17.10
2012,07,05,12,31,17.10
2012,07,05,12,32,17.10
2012,07,05,12,33,17.00
2012,07,05,12,34,17.00
2012,07,05,12,35,17.10
2012,07,05,12,36,17.10
2012,07,05,12,37,17.30
2012,07,05,12,38,17.30
2012,07,05,12,39,17.30
2012,07,05,12,40,17.30
2012,07,05,12,41,17.40
2012,07,05,12,42,17.50
2012,07,05,12,43,17.50
2012,07,05,12,44,17.50
2012,07,05,12,45,17.50
2012,07,05,12,46,17.40
2012,07,05,12,47,17.30
2012,07,05,12,48,17.30
2012,07,05,12,49,17.30
2012,07,05,12,50,17.30
2012,07,05,12,51,17.40
2012,07,05,12,52,17.50
2012,07,05,12,53,17.50
2012,07,05,12,54,17.50
2012,07,05,12,55,17.50
2012,07,05,12,56,17.60
2012,07,05,12,57,17.60
2012,07,05,12,58,17.60
2012,07,05,12,59,17.50
2012,07,05,13,00,17.40
2012,07,05,13,01,17.40
2012,07,05,13,02,17.30
2012,07,05,13,03,17.30
2012,07,05,13,04,17.30
2012,07,05,13,05,17.40
2012,07,05,13,06,17.50
2012,07,05,13,07,17.40
2012,07,05,13,08,17.50
2012,07,05,13,09,17.60
2012,07,05,13,10,17.70
2012,07,05,13,11,17.80
2012,07,05,13,12,17.90
2012,07,05,13,13,18.00
2012,07,05,13,14,18.10
2012,07,05,13,15,18.20
2012,07,05,13,16,18.20
2012,07,05,13,17,18.40
2012,07,05,13,18,18.50
2012,07,05,13,19,18.50
2012,07,05,13,20,18.30
2012,07,05,13,21,18.20
2012,07,05,13,22,18.20
2012,07,05,13,23,18.10
2012,07,05,13,24,18.10
2012,07,05,13,25,18.00
2012,07,05,13,26,18.10
2012,07,05,13,27,18.20
2012,07,05,13,28,18.20
2012,07,05,13,29,18.30
2012,07,05,13,30,18.20
2012,07,05,13,31,18.00
2012,07,05,13,32,17.90
2012,07,05,13,33,17.90
2012,07,05,13,34,18.10
2012,07,05,13,35,18.10
2012,07,05,13,36,18.00
2012,07,05,13,37,17.90
2012,07,05,13,38,18.00
2012,07,05,13,39,18.00
2012,07,05,13,40,17.90
2012,07,05,13,41,17.90
2012,07,05,13,42,18.00
2012,07,05,13,43,18.10
2012,07,05,13,44,18.30
2012,07,05,13,45,18.50
2012,07,05,13,46,18.60
2012,07,05,13,47,18.70
2012,07,05,13,48,18.70
2012,07,05,13,49,18.60
2012,07,05,13,50,18.60
2012,07,05,13,51,18.60
2012,07,05,13,52,18.60
2012,07,05,13,53,18.30
2012,07,05,13,54,18.20
2012,07,05,13,55,18.20
2012,07,05,13,56,18.10
2012,07,05,13,57,17.90
2012,07,05,13,58,17.80
2012,07,05,13,59,17.90
2012,07,05,14,00,18.10
2012,07,05,14,01,18.30
2012,07,05,14,02,18.50
2012,07,05,14,03,18.70
2012,07,05,14,04,18.70
2012,07,05,14,05,18.60
2012,07,05,14,06,18.50
2012,07,05,14,07,18.30
2012,07,05,14,08,18.30
2012,07,05,14,09,18.30
2012,07,05,14,10,18.30
2012,07,05,14,11,18.40
2012,07,05,14,12,18.30
2012,07,05,14,13,18.30
2012,07,05,14,14,18.20
2012,07,05,14,15,18.30
2012,07,05,14,16,18.30
2012,07,05,14,17,18.30
2012,07,05,14,18,18.30
2012,07,05,14,19,18.30
2012,07,05,14,20,18.20
2012,07,05,14,21,18.10
2012,07,05,14,22,17.90
2012,07,05,14,23,18.10
2012,07,05,14,24,18.20
2012,07,05,14,25,18.20
2012,07,05,14,26,18.20
2012,07,05,14,27,18.10
2012,07,05,14,28,18.10
2012,07,05,14,29,18.10
2012,07,05,14,30,18.20
2012,07,05,14,31,18.30
2012,07,05,14,32,18.40
2012,07,05,14,33,18.60
2012,07,05,14,34,18.70
2012,07,05,14,35,18.60
2012,07,05,14,36,18.70
2012,07,05,14,37,18.60
2012,07,05,14,38,18.40
2012,07,05,14,39,18.30
2012,07,05,14,40,18.30
2012,07,05,14,41,18.30
2012,07,05,14,42,18.20
2012,07,05,14,43,18.20
2012,07,05,14,44,18.30
2012,07,05,14,45,18.40
2012,07,05,14,46,18.50
2012,07,05,14,47,18.60
2012,07,05,14,48,18.70
2012,07,05,14,49,18.70
2012,07,05,14,50,18.90
2012,07,05,14,51,18.90
2012,07,05,14,52,18.80
2012,07,05,14,53,18.60
2012,07,05,14,54,18.60
2012,07,05,14,55,18.50
2012,07,05,14,56,18.40
2012,07,05,14,57,18.50
2012,07,05,14,58,18.80
2012,07,05,14,59,19.00
2012,07,05,15,00,19.10
2012,07,05,15,01,19.20
2012,07,05,15,02,19.30
2012,07,05,15,03,19.30
2012,07,05,15,04,19.10
2012,07,05,15,05,19.10
2012,07,05,15,06,19.20
2012,07,05,15,07,19.20
2012,07,05,15,08,19.20
2012,07,05,15,09,19.10
2012,07,05,15,10,19.00
2012,07,05,15,11,18.90
2012,07,05,15,12,18.70
2012,07,05,15,13,18.70
2012,07,05,15,14,18.80
2012,07,05,15,15,18.80
2012,07,05,15,16,18.90
2012,07,05,15,17,18.90
2012,07,05,15,18,19.00
2012,07,05,15,19,19.00
2012,07,05,15,20,18.90
2012,07,05,15,21,18.90
2012,07,05,15,22,19.00
2012,07,05,15,23,19.10
2012,07,05,15,24,19.10
2012,07,05,15,25,19.10
2012,07,05,15,26,19.20
2012,07,05,15,27,19.20
2012,07,05,15,28,19.10
2012,07,05,15,29,19.20
2012,07,05,15,30,19.10
2012,07,05,15,31,18.90
2012,07,05,15,32,18.90
2012,07,05,15,33,18.80
2012,07,05,15,34,18.70
2012,07,05,15,35,18.80
2012,07,05,15,36,18.90
2012,07,05,15,37,19.00
2012,07,05,15,38,19.10
2012,07,05,15,39,19.20
2012,07,05,15,40,19.20
2012,07,05,15,41,19.10
2012,07,05,15,42,19.00
2012,07,05,15,43,18.90
2012,07,05,15,44,18.90
2012,07,05,15,45,19.10
2012,07,05,15,46,19.20
2012,07,05,15,47,19.30
2012,07,05,15,48,19.40
2012,07,05,15,49,19.50
2012,07,05,15,50,19.60
2012,07,05,15,51,19.80
2012,07,05,15,52,19.90
2012,07,05,15,53,20.00
2012,07,05,15,54,20.20
2012,07,05,15,55,20.10
2012,07,05,15,56,19.80
2012,07,05,15,57,19.80
2012,07,05,15,58,19.80
2012,07,05,15,59,19.90
2012,07,05,16,00,19.90
2012,07,05,16,01,19.90
2012,07,05,16,02,19.80
2012,07,05,16,03,19.80
2012,07,05,16,04,19.80
2012,07,05,16,05,19.80
2012,07,05,16,06,19.80
2012,07,05,16,07,19.90
2012,07,05,16,08,19.90
2012,07,05,16,09,20.10
2012,07,05,16,10,20.20
2012,07,05,16,11,20.40
2012,07,05,16,12,20.50
2012,07,05,16,13,20.50
2012,07,05,16,14,20.60
2012,07,05,16,15,20.70
2012,07,05,16,16,20.70
2012,07,05,16,17,20.80
2012,07,05,16,18,20.80
2012,07,05,16,19,20.80
2012,07,05,16,20,20.70
2012,07,05,16,21,20.60
2012,07,05,16,22,20.40
2012,07,05,16,23,20.40
2012,07,05,16,24,20.30
2012,07,05,16,25,20.20
2012,07,05,16,26,20.20
2012,07,05,16,27,20.30
2012,07,05,16,28,20.30
2012,07,05,16,29,20.40
2012,07,05,16,30,20.40
2012,07,05,16,31,20.40
2012,07,05,16,32,20.50
2012,07,05,16,33,20.60
2012,07,05,16,34,20.80
2012,07,05,16,35,20.90
2012,07,05,16,36,21.00
2012,07,05,16,37,20.80
2012,07,05,16,38,20.80
2012,07,05,16,39,20.80
2012,07,05,16,40,20.90
2012,07,05,16,41,21.00
2012,07,05,16,42,21.00
2012,07,05,16,43,20.90
2012,07,05,16,44,20.80
2012,07,05,16,45,20.90
2012,07,05,16,46,20.80
2012,07,05,16,47,20.80
2012,07,05,16,48,20.80
2012,07,05,16,49,20.90
2012,07,05,16,50,20.70
2012,07,05,16,51,20.70
2012,07,05,16,52,20.50
2012,07,05,16,53,20.40
2012,07,05,16,54,20.30
2012,07,05,16,55,20.30
2012,07,05,16,56,20.20
2012,07,05,16,57,20.20
2012,07,05,16,58,20.20
2012,07,05,16,59,20.20
2012,07,05,17,00,20.20
2012,07,05,17,01,20.20
2012,07,05,17,02,20.20
2012,07,05,17,03,20.20
2012,07,05,17,04,20.40
2012,07,05,17,05,20.50
2012,07,05,17,06,20.50
2012,07,05,17,07,20.60
2012,07,05,17,08,20.70
2012,07,05,17,09,20.70
2012,07,05,17,10,20.80
2012,07,05,17,11,21.00
2012,07,05,17,12,21.00
2012,07,05,17,13,21.10
2012,07,05,17,14,21.20
2012,07,05,17,15,21.20
2012,07,05,17,16,21.20
2012,07,05,17,17,21.20
2012,07,05,17,18,21.20
2012,07,05,17,19,21.20
2012,07,05,17,20,21.10
2012,07,05,17,21,21.20
2012,07,05,17,22,21.10
2012,07,05,17,23,21.10
2012,07,05,17,24,20.90
2012,07,05,17,25,20.70
2012,07,05,17,26,20.60
2012,07,05,17,27,20.40
2012,07,05,17,28,20.30
2012,07,05,17,29,20.30